Time,TemperatureF,DewpointF,PressureIn,WindDirection,WindDirectionDegrees,WindSpeedMPH,WindSpeedGustMPH,Humidity,HourlyPrecipIn,Conditions,Clouds,dailyrainin,SoftwareType,DateUTC
2013-06-29 00:31:00,62.0,-99.9,29.67,North,360,14.0,17.0,-999,-99.99,,,-99.99,,2013-06-29 05:31:00,
2013-06-29 01:30:00,62.0,-99.9,29.67,North,360,14.0,16.0,-999,-99.99,,,-99.99,,2013-06-29 06:30:00,
2013-06-29 02:02:00,62.0,-99.9,29.67,North,360,14.0,16.0,-999,-99.99,,,-99.99,,2013-06-29 07:02:00,
2013-06-29 02:12:00,62.0,-99.9,29.67,North,360,14.0,16.0,-999,-99.99,,,-99.99,,2013-06-29 07:12:00,
2013-06-29 02:22:00,62.0,-99.9,29.67,North,360,14.0,16.0,-999,-99.99,,,-99.99,,2013-06-29 07:22:00,
2013-06-29 03:40:00,61.0,-99.9,29.67,North,350,12.0,17.0,-999,-99.99,,,-99.99,,2013-06-29 08:40:00,
2013-06-29 04:12:00,61.0,-99.9,29.67,North,350,12.0,17.0,-999,-99.99,,,-99.99,,2013-06-29 09:12:00,
2013-06-29 04:22:00,61.0,-99.9,29.67,North,350,12.0,17.0,-999,-99.99,,,-99.99,,2013-06-29 09:22:00,
2013-06-29 04:40:00,62.0,-99.9,29.68,North,360,17.0,20.0,-999,-99.99,,,-99.99,,2013-06-29 09:40:00,
2013-06-29 05:11:00,62.0,-99.9,29.68,North,360,17.0,20.0,-999,-99.99,,,-99.99,,2013-06-29 10:11:00,
2013-06-29 05:22:00,62.0,-99.9,29.68,North,360,17.0,20.0,-999,-99.99,,,-99.99,,2013-06-29 10:22:00,
2013-06-29 05:33:00,62.0,-99.9,29.68,North,360,17.0,20.0,-999,-99.99,,,-99.99,,2013-06-29 10:33:00,
2013-06-29 06:40:00,61.0,-99.9,29.71,NNW,340,16.0,22.0,-999,-99.99,,,-99.99,,2013-06-29 11:40:00,
2013-06-29 07:02:00,61.0,-99.9,29.71,NNW,340,16.0,22.0,-999,-99.99,,,-99.99,,2013-06-29 12:02:00,
2013-06-29 07:12:00,61.0,-99.9,29.71,NNW,340,16.0,22.0,-999,-99.99,,,-99.99,,2013-06-29 12:12:00,
2013-06-29 07:22:00,61.0,-99.9,29.71,NNW,340,16.0,22.0,-999,-99.99,,,-99.99,,2013-06-29 12:22:00,
2013-06-29 07:30:00,60.0,-99.9,29.71,North,350,16.0,21.0,-999,-99.99,,,-99.99,,2013-06-29 12:30:00,
2013-06-29 07:34:00,61.0,-99.9,29.71,NNW,340,16.0,22.0,-999,-99.99,,,-99.99,,2013-06-29 12:34:00,
2013-06-29 08:02:00,60.0,-99.9,29.71,North,350,16.0,21.0,-999,-99.99,,,-99.99,,2013-06-29 13:02:00,
2013-06-29 08:11:00,60.0,-99.9,29.71,North,350,16.0,21.0,-999,-99.99,,,-99.99,,2013-06-29 13:11:00,
2013-06-29 08:23:00,60.0,-99.9,29.71,North,350,16.0,21.0,-999,-99.99,,,-99.99,,2013-06-29 13:23:00,
2013-06-29 08:40:00,61.0,-99.9,29.72,North,350,17.0,21.0,-999,-99.99,,,-99.99,,2013-06-29 13:40:00,
2013-06-29 09:24:00,61.0,-99.9,29.72,North,350,17.0,21.0,-999,-99.99,,,-99.99,,2013-06-29 14:24:00,
2013-06-29 09:34:00,61.0,-99.9,29.72,North,350,17.0,21.0,-999,-99.99,,,-99.99,,2013-06-29 14:34:00,
2013-06-29 09:40:00,62.0,-99.9,29.72,North,350,16.0,18.0,-999,-99.99,,,-99.99,,2013-06-29 14:40:00,
2013-06-29 10:02:00,61.0,-99.9,29.72,North,350,16.0,20.0,-999,-99.99,,,-99.99,,2013-06-29 15:02:00,
2013-06-29 10:11:00,62.0,-99.9,29.72,North,350,16.0,18.0,-999,-99.99,,,-99.99,,2013-06-29 15:11:00,
2013-06-29 10:22:00,62.0,-99.9,29.72,North,350,16.0,18.0,-999,-99.99,,,-99.99,,2013-06-29 15:22:00,
2013-06-29 10:33:00,62.0,-99.9,29.72,North,350,16.0,18.0,-999,-99.99,,,-99.99,,2013-06-29 15:33:00,
2013-06-29 10:40:00,63.0,-99.9,29.73,NNW,340,14.0,17.0,-999,-99.99,,,-99.99,,2013-06-29 15:40:00,
2013-06-29 11:12:00,63.0,-99.9,29.73,NNW,340,14.0,17.0,-999,-99.99,,,-99.99,,2013-06-29 16:12:00,
2013-06-29 11:23:00,63.0,-99.9,29.73,NNW,340,14.0,17.0,-999,-99.99,,,-99.99,,2013-06-29 16:23:00,
2013-06-29 11:34:00,63.0,-99.9,29.73,NNW,340,14.0,17.0,-999,-99.99,,,-99.99,,2013-06-29 16:34:00,
2013-06-29 11:40:00,63.0,-99.9,29.75,North,350,14.0,16.0,-999,-99.99,,,-99.99,,2013-06-29 16:40:00,
2013-06-29 12:02:00,63.0,-99.9,29.75,North,350,14.0,16.0,-999,-99.99,,,-99.99,,2013-06-29 17:02:00,
2013-06-29 12:12:00,63.0,-99.9,29.75,North,350,14.0,16.0,-999,-99.99,,,-99.99,,2013-06-29 17:12:00,
2013-06-29 12:23:00,63.0,-99.9,29.75,North,350,14.0,16.0,-999,-99.99,,,-99.99,,2013-06-29 17:23:00,
2013-06-29 12:34:00,63.0,-99.9,29.75,North,350,14.0,16.0,-999,-99.99,,,-99.99,,2013-06-29 17:34:00,
2013-06-29 12:40:00,63.0,-99.9,29.75,NNW,340,12.0,15.0,-999,-99.99,,,-99.99,,2013-06-29 17:40:00,
2013-06-29 13:02:00,63.0,-99.9,29.74,North,350,13.0,16.0,-999,-99.99,,,-99.99,,2013-06-29 18:02:00,
2013-06-29 13:12:00,63.0,-99.9,29.75,NNW,340,12.0,15.0,-999,-99.99,,,-99.99,,2013-06-29 18:12:00,
2013-06-29 13:22:00,63.0,-99.9,29.75,NNW,340,12.0,15.0,-999,-99.99,,,-99.99,,2013-06-29 18:22:00,
2013-06-29 13:34:00,63.0,-99.9,29.75,NNW,340,12.0,15.0,-999,-99.99,,,-99.99,,2013-06-29 18:34:00,
2013-06-29 13:40:00,64.0,-99.9,29.75,North,350,16.0,18.0,-999,-99.99,,,-99.99,,2013-06-29 18:40:00,
2013-06-29 14:12:00,64.0,-99.9,29.75,North,350,16.0,18.0,-999,-99.99,,,-99.99,,2013-06-29 19:12:00,
2013-06-29 14:22:00,64.0,-99.9,29.75,North,350,16.0,18.0,-999,-99.99,,,-99.99,,2013-06-29 19:22:00,
2013-06-29 14:34:00,64.0,-99.9,29.75,North,350,16.0,18.0,-999,-99.99,,,-99.99,,2013-06-29 19:34:00,
2013-06-29 14:40:00,65.0,-99.9,29.75,NNW,340,16.0,20.0,-999,-99.99,,,-99.99,,2013-06-29 19:40:00,
2013-06-29 15:12:00,65.0,-99.9,29.75,NNW,340,16.0,20.0,-999,-99.99,,,-99.99,,2013-06-29 20:12:00,
2013-06-29 15:23:00,65.0,-99.9,29.75,NNW,340,16.0,20.0,-999,-99.99,,,-99.99,,2013-06-29 20:23:00,
2013-06-29 15:33:00,65.0,-99.9,29.75,NNW,340,16.0,20.0,-999,-99.99,,,-99.99,,2013-06-29 20:33:00,
2013-06-29 17:40:00,65.0,-99.9,29.79,NNW,340,12.0,15.0,-999,-99.99,,,-99.99,,2013-06-29 22:40:00,
2013-06-29 18:03:00,65.0,-99.9,29.79,NNW,340,12.0,15.0,-999,-99.99,,,-99.99,,2013-06-29 23:03:00,
2013-06-29 18:12:00,65.0,-99.9,29.79,NNW,340,12.0,15.0,-999,-99.99,,,-99.99,,2013-06-29 23:12:00,
2013-06-29 18:24:00,65.0,-99.9,29.79,NNW,340,12.0,15.0,-999,-99.99,,,-99.99,,2013-06-29 23:24:00,
2013-06-29 19:40:00,63.0,-99.9,29.82,NNW,340,14.0,16.0,-999,-99.99,,,-99.99,,2013-06-30 00:40:00,
2013-06-29 20:12:00,63.0,-99.9,29.82,NNW,340,14.0,16.0,-999,-99.99,,,-99.99,,2013-06-30 01:12:00,
2013-06-29 20:22:00,63.0,-99.9,29.82,NNW,340,14.0,16.0,-999,-99.99,,,-99.99,,2013-06-30 01:22:00,
2013-06-29 20:33:00,63.0,-99.9,29.82,NNW,340,14.0,16.0,-999,-99.99,,,-99.99,,2013-06-30 01:33:00,
2013-06-29 20:40:00,63.0,-99.9,29.83,NNW,340,15.0,20.0,-999,-99.99,,,-99.99,,2013-06-30 01:40:00,
2013-06-29 21:12:00,63.0,-99.9,29.83,NNW,340,15.0,20.0,-999,-99.99,,,-99.99,,2013-06-30 02:12:00,
2013-06-29 21:24:00,63.0,-99.9,29.83,NNW,340,15.0,20.0,-999,-99.99,,,-99.99,,2013-06-30 02:24:00,
2013-06-29 21:34:00,63.0,-99.9,29.83,NNW,340,15.0,20.0,-999,-99.99,,,-99.99,,2013-06-30 02:34:00,
2013-06-29 22:40:00,61.0,-99.9,29.86,NNW,340,16.0,20.0,-999,-99.99,,,-99.99,,2013-06-30 03:40:00,
2013-06-29 23:02:00,62.0,-99.9,29.86,NNW,340,15.0,18.0,-999,-99.99,,,-99.99,,2013-06-30 04:02:00,
2013-06-29 23:12:00,61.0,-99.9,29.86,NNW,340,16.0,20.0,-999,-99.99,,,-99.99,,2013-06-30 04:12:00,
2013-06-29 23:22:00,61.0,-99.9,29.86,NNW,340,16.0,20.0,-999,-99.99,,,-99.99,,2013-06-30 04:22:00,
2013-06-29 23:33:00,61.0,-99.9,29.86,NNW,340,16.0,20.0,-999,-99.99,,,-99.99,,2013-06-30 04:33:00,
2013-06-29 23:40:00,61.0,-99.9,29.86,NNW,340,15.0,20.0,-999,-99.99,,,-99.99,,2013-06-30 04:40:00,